Arctic Village, AK

5:34 PM AKST on February 07, 2016 (GMT -0900)
Arctic Village

Weather History for PARC - January, 2013

Change the Weather History Date:

Wednesday, January 2, 2013

  Actual Average Record
Temperature  
Mean Temperature 9 °F -  
Max Temperature 15 °F -13 °F 24 °F (2016)
Min Temperature 3 °F -28 °F -57 °F (1971)
Degree Days  
Heating Degree Days 56    
Moisture  
Dew Point -4 °F    
Average Humidity 50    
Maximum Humidity 100    
Minimum Humidity 37    
Precipitation  
Precipitation 0.00 in - - ()
Sea Level Pressure  
Sea Level Pressure 29.28 in    
Wind  
Wind Speed 1 mph (SW)    
Max Wind Speed 6 mph    
Max Gust Speed -    
Visibility 8 miles    
Events      
Averages and records for this station are not official NWS values.
T = Trace of Precipitation, MM = Missing Value Source: NWS Daily Summary

Daily Weather History Graph

Daily Weather History Graph

Search for Another Location

Airport or City:

Trip Planner

Search our weather history database for the weather conditions in past years. The results will help you decide how hot, cold, wet, or windy it might be!

Date:

Astronomy

Jan. 02, 2013 Rise Set
Actual Time 12:14 PM AKST 1:19 PM AKST
Civil Twilight 9:59 AM AKST 3:34 PM AKST
Nautical Twilight 8:31 AM AKST 5:01 PM AKST
Astronomical Twilight 7:20 AM AKST 6:12 PM AKST
Moon 11:15 PM AKST (1/2) 11:01 AM AKST (1/2)
Length of Visible Light 5h 35m
Length of Day
1h 04m
Waning Gibbous, 74% of the Moon is Illuminated
Jan 2
Waning Gibbous
Jan 4
Last Quarter
Jan 11
New
Jan 18
First Quarter
Jan 26
Full

Hourly Weather History & Observations

Time (AKST) Temp. Windchill Dew Point Humidity Pressure Visibility Wind Dir Wind Speed Gust Speed Precip Events Conditions
12:16 AM 10.4 °F - - N/A% 29.19 in 10.0 mi Calm Calm - N/A   Overcast
12:36 AM 12.2 °F - - N/A% 29.18 in 10.0 mi Calm Calm - N/A   Overcast
12:56 AM 12.2 °F - - N/A% 29.18 in 10.0 mi Calm Calm - N/A   Overcast
1:16 AM 14.0 °F - - N/A% 29.17 in 10.0 mi Calm Calm - N/A   Overcast
1:36 AM 14.0 °F - 14.0 °F 100% 29.17 in 10.0 mi Calm Calm - N/A   Overcast
1:56 AM 14.0 °F - 12.2 °F 93% 29.17 in 10.0 mi Calm Calm - N/A   Overcast
2:16 AM 14.0 °F - 6.8 °F 73% 29.16 in 10.0 mi Calm Calm - N/A   Overcast
2:36 AM 14.0 °F - 3.2 °F 62% 29.16 in 10.0 mi Calm Calm - N/A   Overcast
2:56 AM 14.0 °F 8.2 °F -2.2 °F 49% 29.16 in 10.0 mi SSW 3.5 mph - N/A   Overcast
3:16 AM 14.0 °F 8.2 °F -4.0 °F 45% 29.16 in 10.0 mi SSW 3.5 mph - N/A   Overcast
3:36 AM 14.0 °F 8.2 °F -5.8 °F 41% 29.15 in 7.0 mi SW 3.5 mph - N/A   Overcast
3:56 AM 14.0 °F - -5.8 °F 41% 29.15 in 9.0 mi Calm Calm - N/A   Overcast
4:16 AM 14.0 °F - -2.2 °F 49% 29.15 in 9.0 mi Calm Calm - N/A   Overcast
4:36 AM 15.8 °F - 3.2 °F 58% 29.14 in 6.0 mi Calm Calm - N/A   Overcast
4:56 AM 15.8 °F - 14.0 °F 93% 29.14 in 10.0 mi Calm Calm - N/A   Overcast
5:16 AM 15.8 °F - - N/A% 29.14 in 10.0 mi Calm Calm - N/A   Scattered Clouds
5:36 AM 14.0 °F - - N/A% 29.15 in 10.0 mi Calm Calm - N/A   Mostly Cloudy
5:56 AM 15.8 °F 10.2 °F - N/A% 29.15 in 10.0 mi SSW 3.5 mph - N/A   Mostly Cloudy
6:16 AM 14.0 °F - 14.0 °F 100% 29.15 in 10.0 mi Calm Calm - N/A   Partly Cloudy
6:36 AM 14.0 °F 8.2 °F 12.2 °F 93% 29.15 in 10.0 mi SSW 3.5 mph - N/A   Scattered Clouds
6:56 AM 12.2 °F - 8.6 °F 85% 29.16 in 10.0 mi Calm Calm - N/A   Mostly Cloudy
7:16 AM 12.2 °F 6.1 °F 6.8 °F 79% 29.16 in 10.0 mi SW 3.5 mph - N/A   Overcast
7:36 AM 15.8 °F 7.2 °F -0.4 °F 49% 29.16 in 10.0 mi SW 5.8 mph - N/A   Overcast
7:56 AM 15.8 °F 7.2 °F -5.8 °F 38% 29.17 in 10.0 mi SW 5.8 mph - N/A   Overcast
8:16 AM 14.0 °F 6.5 °F -5.8 °F 41% 29.17 in 10.0 mi SW 4.6 mph - N/A   Mostly Cloudy
8:36 AM 12.2 °F 4.3 °F -7.6 °F 41% 29.17 in 10.0 mi SW 4.6 mph - N/A   Partly Cloudy
8:56 AM 12.2 °F - -9.4 °F 38% 29.18 in 10.0 mi Calm Calm - N/A   Mostly Cloudy
9:16 AM 12.2 °F - -9.4 °F 38% 29.19 in 10.0 mi Calm Calm - N/A   Overcast
9:36 AM 12.2 °F - -9.4 °F 38% 29.20 in 10.0 mi Calm Calm - N/A   Overcast
9:56 AM 12.2 °F - -9.4 °F 38% 29.21 in 9.0 mi Calm Calm - N/A   Mostly Cloudy
10:16 AM 12.2 °F - -7.6 °F 41% 29.22 in 5.0 mi Calm Calm - N/A   Mostly Cloudy
10:36 AM 12.2 °F - -7.6 °F 41% 29.22 in 5.0 mi Calm Calm - N/A   Overcast
10:56 AM 10.4 °F - -11.2 °F 37% 29.23 in 4.0 mi Calm Calm - N/A   Overcast
11:16 AM 10.4 °F - -11.2 °F 37% 29.24 in 3.0 mi Calm Calm - N/A   Overcast
11:36 AM 10.4 °F - -9.4 °F 41% 29.24 in 8.0 mi Calm Calm - N/A   Overcast
11:56 AM 12.2 °F - -9.4 °F 38% 29.25 in 8.0 mi Calm Calm - N/A   Mostly Cloudy
12:16 PM 12.2 °F - -4.0 °F 48% 29.26 in 9.0 mi Calm Calm - N/A   Overcast
12:36 PM 10.4 °F - -7.6 °F 44% 29.26 in 5.0 mi Calm Calm - N/A   Overcast
12:56 PM 12.2 °F - -5.8 °F 45% 29.27 in 2.0 mi Calm Calm - N/A   Overcast
1:16 PM 12.2 °F - -5.8 °F 45% 29.28 in 10.0 mi Calm Calm - N/A   Overcast
1:36 PM 12.2 °F - -5.8 °F 45% 29.28 in 2.0 mi Calm Calm - N/A   Overcast
1:56 PM 12.2 °F - -4.0 °F 48% 29.29 in 3.0 mi Calm Calm - N/A   Overcast
2:16 PM 12.2 °F - -4.0 °F 48% 29.30 in 2.0 mi Calm Calm - N/A   Overcast
2:36 PM 12.2 °F - -5.8 °F 45% 29.31 in 2.0 mi Calm Calm - N/A   Overcast
2:56 PM 12.2 °F - -5.8 °F 45% 29.31 in 1.8 mi Calm Calm - N/A   Overcast
3:16 PM 12.2 °F - -5.8 °F 45% 29.32 in 3.0 mi Calm Calm - N/A   Overcast
3:36 PM 12.2 °F - -7.6 °F 41% 29.33 in 2.5 mi Calm Calm - N/A   Overcast
3:56 PM 12.2 °F - -7.6 °F 41% 29.33 in 3.0 mi Calm Calm - N/A   Overcast
4:36 PM 12.2 °F - -7.6 °F 41% 29.35 in 9.0 mi Calm Calm - N/A   Overcast
4:56 PM 12.2 °F - -7.6 °F 41% 29.36 in 5.0 mi Calm Calm - N/A   Overcast
5:16 PM 12.2 °F - -7.6 °F 41% 29.36 in 9.0 mi Calm Calm - N/A   Overcast
5:36 PM 12.2 °F - -7.6 °F 41% 29.37 in 10.0 mi Calm Calm - N/A   Overcast
5:56 PM 12.2 °F - -7.6 °F 41% 29.38 in 9.0 mi Calm Calm - N/A   Overcast
6:16 PM 12.2 °F - -9.4 °F 38% 29.39 in 10.0 mi Calm Calm - N/A   Mostly Cloudy
6:36 PM 12.2 °F - -7.6 °F 41% 29.40 in 10.0 mi Calm Calm - N/A   Mostly Cloudy
6:56 PM 12.2 °F - -7.6 °F 41% 29.41 in 10.0 mi Calm Calm - N/A   Overcast
7:16 PM 12.2 °F - -7.6 °F 41% 29.41 in 10.0 mi Calm Calm - N/A   Overcast
7:36 PM 12.2 °F - -5.8 °F 45% 29.41 in 10.0 mi Calm Calm - N/A   Overcast
7:56 PM 10.4 °F - -7.6 °F 44% 29.42 in 10.0 mi Calm Calm - N/A   Overcast
8:16 PM 12.2 °F - -7.6 °F 41% 29.43 in 10.0 mi Calm Calm - N/A   Overcast
8:36 PM 8.6 °F - -9.4 °F 44% 29.44 in 10.0 mi Calm Calm - N/A   Overcast
8:56 PM 6.8 °F - -14.8 °F 37% 29.44 in 10.0 mi Calm Calm - N/A   Overcast
9:16 PM 8.6 °F - 1.4 °F 73% 29.45 in 10.0 mi Calm Calm - N/A   Scattered Clouds
9:36 PM 6.8 °F - - N/A% 29.46 in 10.0 mi Calm Calm - N/A   Clear
9:56 PM 8.6 °F - - N/A% 29.47 in 10.0 mi Calm Calm - N/A   Mostly Cloudy
10:16 PM 6.8 °F - -5.8 °F 56% 29.48 in 10.0 mi Calm Calm - N/A   Overcast
10:36 PM 6.8 °F - -14.8 °F 37% 29.48 in 8.0 mi Calm Calm - N/A   Mostly Cloudy
10:56 PM 5.0 °F - -14.8 °F 40% 29.50 in 10.0 mi Calm Calm - N/A   Mostly Cloudy
11:16 PM 3.2 °F - - N/A% 29.51 in 10.0 mi Calm Calm - N/A   Overcast
11:36 PM 5.0 °F - - N/A% 29.52 in 10.0 mi Calm Calm - N/A   Overcast
11:56 PM 5.0 °F - -7.6 °F 56% 29.53 in 6.0 mi Calm Calm - N/A   Overcast